Location: *
(30.4476°N, 114.3798°E)
Time: 21:29:56
(UTC+00:00)

Meteor 1-13 Rocket - Pass Details

Date: 09 April 2020
Orbit: 830 x 912 km, 81.3° (Epoch: 30 May)

Event Time Altitude Azimuth Distance (km) Brightness Sun altitude
Exits shadow 20:16:13 48° 241° (WSW) 1,124 4.4 -22.4°
Maximum altitude 20:17:16 55° 279° (W) 1,036 4.3 -22.2°
Drops below altitude 10° 20:22:48 10° 357° (N) 2,492 6.9 -21.1°
Sets 20:25:16 0° 2° (N) 3,419 7.7 -20.6°
